OITM  Sahand Airport

Add Bookmark

Maragheh, Iran

Status IATA
Operational ACP
Latitude Longitude
37° 20' 52" N 46° 7' 40" E
37.348000 46.127899
Local (DST + 5) UTC (GMT + 4)
Oct 26, 2014 03:46 Oct 26, 2014 00:16
Sunrise-Sunset Local UTC
Begin Civil Twilight 06:16 02:46
Sunrise 06:42 03:12
Sunset 05:35 14:05
End Civil Twilight 06:02 14:32

Current Weather

METAR Observed VFR
OITM 260000Z 09008KT CAVOK 08/03 Q1019 Sun, Oct 26, 2014 @ 00:00 UTC
(16 Minutes ago)
Visual Flight Rules
Wind Visibility Clouds Conditions
090° at 8 knots (15 kph) 10 km or more
  • Clear skies
  • No significant weather
Temperatures Readings Precipitation
Current Temp 8°C (46°F)
Dewpoint 3°C (37°F)
Humidity 71%
Altimeter 30.09"Hg
Sea Level Pressure 1019mb
Field Elevation 4396.33'
None Recorded

Additional weather within a 92.6km radius of OITM

Map ICAO Location
OITT 87.8km N (006°)

24 Hour Weather History

Loading
-

24 Hour Weather Graphs

Loading
-

CheckWX.com is intended as a tool to help pilots better visualize weather data. It is not intended as a substitute for an official weather briefing obtained from a Flight Service Station. CheckWX.com does not meet the FAA requirements for an official pre-flight weather briefing. Therefore, it's important that pilots still call and obtain an official FSS pre-flight weather briefing.